Location: Hopewell Observatory
(38.8698°N, 77.6988°W)
Time: 14:00:07
(UTC-04:00)

Cosmos 1763 Rocket - Pass Details

Date: 26 May 2018
Orbit: 734 x 780 km, 74.0° (Epoch: 20 June)

Event Time Altitude Azimuth Distance (km) Brightness Sun altitude
Rises 20:50:19 0° 176° (S) 3,247 6.4 -4.9°
Reaches altitude 10° 20:52:50 10° 169° (S) 2,322 5.6 -5.3°
Maximum altitude 20:57:42 39° 102° (ESE) 1,152 4.0 -6.1°
Drops below altitude 10° 21:02:35 10° 34° (NE) 2,323 6.0 -6.9°
Sets 21:05:05 0° 27° (NNE) 3,248 6.9 -7.3°
